Weather History for KP68 - May, 2013

Change the Weather History Date:

Wednesday, May 22, 2013

  Actual Average Record
Temperature  
Mean Temperature 48 °F 53 °F  
Max Temperature 63 °F 72 °F 88 °F (2000)
Min Temperature 33 °F 35 °F 21 °F (2002)
Degree Days  
Heating Degree Days 17 12  
Month to date heating degree days 267 316  
Since 1 July heating degree days 6681 7120  
Cooling Degree Days 0 0  
Month to date cooling degree days 1 0  
Year to date cooling degree days 1 0  
Moisture  
Dew Point 18 °F    
Average Humidity 36    
Maximum Humidity 56    
Minimum Humidity 15    
Precipitation  
Precipitation 0.00 in 0.02 in 0.34 in (1965)
Month to date precipitation 0.50 0.53  
Year to date precipitation 2.98 4.03  
Sea Level Pressure  
Sea Level Pressure 29.64 in    
Wind  
Wind Speed 11 mph (NNE)    
Max Wind Speed 24 mph    
Max Gust Speed 33 mph    
T = Trace of Precipitation, MM = Missing Value Source: NWS Daily Summary

Daily Weather History Graph

Daily Weather History Graph

Search for Another Location

Airport or City:

Trip Planner

Search our weather history database for the weather conditions in past years. The results will help you decide how hot, cold, wet, or windy it might be!

Date:

Astronomy

May. 22, 2013 Rise Set
Actual Time 5:23 AM PDT 7:58 PM PDT
Civil Twilight 4:52 AM PDT 8:29 PM PDT
Nautical Twilight 4:14 AM PDT 9:08 PM PDT
Astronomical Twilight 3:30 AM PDT 9:51 PM PDT
Moon 5:25 PM PDT (5/22) 3:30 AM PDT (5/22)
Length of Visible Light 15h 36m
Length of Day
14h 34m
Waxing Gibbous, 92% of the Moon is Illuminated
May 22
Waxing Gibbous
May 24
Full
May 31
Last Quarter
Jun 8
New
Jun 16
First Quarter

Hourly Weather History & Observations

Time (PDT) Temp. Windchill Dew Point Humidity Pressure Visibility Wind Dir Wind Speed Gust Speed Precip Events Conditions
12:53 AM 46.0 °F 43.1 °F 21.0 °F 37% 29.61 in - South 5.8 mph - N/A   Unknown
1:53 AM 45.0 °F - 21.0 °F 39% 29.60 in - Calm Calm - N/A   Unknown
2:53 AM 37.9 °F - 19.0 °F 47% 29.62 in - Calm Calm - N/A   Unknown
3:53 AM 36.0 °F 31.1 °F 21.9 °F 57% 29.61 in - South 5.8 mph - N/A   Unknown
4:53 AM 37.0 °F 34.5 °F 19.0 °F 48% 29.59 in - South 3.5 mph - N/A   Unknown
5:53 AM 36.0 °F 31.1 °F 21.0 °F 55% 29.60 in - South 5.8 mph - N/A   Unknown
6:53 AM 44.1 °F 42.5 °F 21.0 °F 40% 29.58 in - SW 3.5 mph - N/A   Unknown
7:53 AM 53.1 °F - 16.0 °F 23% 29.57 in - Calm Calm - N/A   Unknown
8:53 AM 57.0 °F - 16.0 °F 20% 29.58 in - NNE 5.8 mph - N/A   Unknown
9:53 AM 60.1 °F - 19.0 °F 20% 29.59 in - Variable 6.9 mph - N/A   Unknown
10:53 AM 60.1 °F - 19.0 °F 20% 29.61 in - North 18.4 mph - N/A   Unknown
11:53 AM 60.1 °F - 21.0 °F 22% 29.64 in - North 16.1 mph 24.2 mph N/A   Unknown
12:53 PM 61.0 °F - 21.9 °F 22% 29.64 in - North 21.9 mph 26.5 mph N/A   Unknown
1:53 PM 61.0 °F - 21.0 °F 21% 29.64 in - NNW 11.5 mph 25.3 mph N/A   Unknown
2:53 PM 62.1 °F - 21.9 °F 21% 29.65 in - North 16.1 mph 24.2 mph N/A   Unknown
3:53 PM 60.1 °F - 19.9 °F 21% 29.66 in - North 16.1 mph 24.2 mph N/A   Unknown
4:53 PM 57.9 °F - 17.1 °F 20% 29.67 in - North 18.4 mph 25.3 mph N/A   Unknown
5:53 PM 54.0 °F - 12.0 °F 19% 29.71 in - North 18.4 mph 25.3 mph N/A   Unknown
6:53 PM 53.1 °F - 10.9 °F 19% 29.68 in - North 16.1 mph - N/A   Unknown
7:53 PM 50.0 °F - 6.1 °F 17% 29.69 in - North 13.8 mph - N/A   Unknown
8:53 PM 48.9 °F - 3.9 °F 16% 29.69 in - North 11.5 mph - N/A   Unknown
9:53 PM 50.0 °F - 12.9 °F 23% 29.69 in - NNE 19.6 mph - N/A   Unknown
10:53 PM 48.0 °F - 18.0 °F 30% 29.69 in - ENE 17.3 mph 25.3 mph N/A   Unknown
11:53 PM 46.0 °F 43.1 °F 21.9 °F 39% 29.69 in - East 5.8 mph - N/A   Unknown